Temp
6 7 7 8 10 11 10 9 6 9 9 7 4 5 6 6 7 6 8 8 8 9 8 9 9 9 9 8 8 9 8 8 7 10 10 10 10 10 10 9 10 10 10 12
6 7 8 8 9 11 11 9 9 9 10 7 6 6 6 6 7 7 8 9 9 8 8 9 9 9 8 7 8 9 8 8 9 9 9 9 10 9 9 8 8 10 11 13
5 6 8 9 9 9 10 9 7 9 7 3 7 8 7 8 6 7 7 8 9 9 9 9 9 9 8 7 8 7 8 8 9 11 11 10 10 9 8 9 9 11 11 12
6 6 7 8 9 10 9 9 5 5 7 8 6 7 7 8 8 8 7 9 7 8 10 9 9 8 9 7 7 7 8 8 7 9 10 9 9 10 9 7 10 10 12 10
7 7 6 8 9 9 9 7 6 5 4 3 7 7 7 7 7 7 9 9 8 8 9 9 9 8 9 9 8 8 7 8 7 6 9 8 8 9 10 10 9 9 9 10
6 7 7 7 8 9 9 8 8 7 4 6 8 7 7 6 5 7 6 7 8 9 8 7 7 7 7 7 8 8 8 8 7 9 8 9 10 11 10 10 10 11 10 12
5 6 7 8 7 7 7 7 7 8 8 8 8 6 6 7 6 7 7 6 7 7 6 6 5 5 5 5 6 6 8 7 6 8 9 10 11 8 9 10 11 10 10 10
5 5 6 7 8 7 7 7 7 7 9 5 5 5 6 5 5 6 6 7 7 7 6 9 9 9 8 7 6 6 7 8 8 8 9 12 10 8 9 9 12 11 10 11
5 5 5 6 7 7 7 7 7 7 7 8 6 6 5 8 8 7 6 7 7 7 7 9 10 11 8 10 8 5 5 6 8 7 9 12 12 8 7 8 11 10 8 10
6 4 5 5 5 6 7 7 6 6 6 7 6 7 7 5 5 7 5 6 5 6 8 9 9 9 6 9 9 7 7 7 7 9 9 11 11 7 7 11 14 8 8 9
4 5 5 4 5 5 5 6 6 6 6 7 7 7 6 6 5 8 5 6 6 6 8 8 9 8 8 6 8 8 9 8 8 7 8 9 7 6 10 11 8 8 7 7
4 4 4 4 4 5 5 5 5 6 6 6 7 7 7 6 6 7 6 5 5 6 8 6 6 7 5 7 10 5 8 10 11 10 12 9 7 9 9 9 8 8 8 8
3 4 4 4 4 4 4 5 5 5 5 6 5 6 6 6 6 5 6 5 6 5 5 5 6 7 6 8 7 7 7 5 8 8 11 8 8 9 9 9 9 8 8 8
3 3 3 4 4 4 4 4 5 5 5 4 6 6 6 6 6 4 4 5 5 5 4 5 6 7 5 7 7 6 10 5 7 7 9 9 8 6 7 7 7 7 7 7
5 3 3 3 3 4 4 4 5 5 5 5 5 6 5 5 4 5 3 3 3 3 3 4 5 4 4 4 2 5 6 8 8 10 10 10 9 8 8 8 7 7 5 6
4 5 3 3 3 3 3 4 4 4 3 4 4 4 3 3 2 2 2 2 2 3 3 4 3 2 4 5 6 7 5 6 8 9 8 7 7 7 7 7 7 7 7 6
3 2 3 3 3 2 3 3 3 3 4 4 3 3 1 1 1 0 1 1 1 2 2 1 2 2 2 4 6 9 7 7 7 7 6 5 6 6 6 6 6 7 6 5
2 2 2 2 3 2 2 3 3 3 3 4 1 2 1 -0 -0 0 0 -0 0 0 1 -0 1 0 1 3 6 6 6 5 6 6 6 6 5 5 4 5 5 5 5 5
2 2 2 2 2 2 2 2 2 2 3 3 -0 2 4 -0 -1 -0 -1 -0 1 -0 1 1 0 3 1 4 5 5 5 6 6 6 5 5 5 5 5 4 4 4 4 5
1 1 1 2 1 2 2 1 1 1 1 1 -1 0 1 0 -1 -0 0 -1 2 2 2 -2 -0 2 3 4 6 5 6 6 5 4 4 5 5 5 4 4 4 4 4 4
1 1 -0 1 1 1 1 0 -0 -0 -1 1 -1 -0 0 1 1 2 0 1 0 1 2 1 2 2 2 5 4 6 6 5 6 6 6 5 4 4 4 5 5 4 4 4
1 1 -1 0 1 0 -1 -1 -2 -2 1 -0 -2 -1 1 0 1 1 -2 1 -1 0 -2 -1 0 2 4 5 5 5 6 6 6 6 6 4 4 4 4 5 5 5 4 4
0 0 -0 -1 -1 -2 -1 -1 -1 -1 -1 -2 -3 -1 1 0 -0 -1 -0 -1 -0 -3 -1 1 2 3 5 5 5 5 5 5 5 5 5 5 4 4 4 5 5 4 4 3
0 -1 -1 -1 -1 -2 -1 1 1 1 0 -1 -0 -2 -1 -1 -1 -0 0 1 -1 -1 -1 1 2 5 7 7 6 6 6 6 6 6 5 5 5 4 4 5 4 4 4 4
-0 -1 1 -0 -0 -0 -0 0 0 1 -0 -0 -0 -1 -1 -1 -1 -1 -2 -2 -1 0 3 3 4 6 7 7 7 7 7 7 7 7 7 6 6 6 5 5 5 4 4 3
-0 -1 -1 -3 -3 -2 -2 -1 -1 1 0 1 1 -1 -1 0 -0 -2 -1 0 1 3 -0 4 6 7 8 8 8 8 8 7 7 7 7 7 7 7 6 5 5 4 3 3
-2 -2 -0 -1 -1 2 2 1 1 1 -1 0 -1 -1 1 -3 -1 -2 -1 -0 2 4 6 6 6 7 8 8 8 8 7 7 7 7 7 6 6 6 6 6 5 4 2 2
Height
1514 1510 1506 1502 1500 1499 1496 1491 1494 1495 1492 1493 1500 1501 1504 1507 1509 1509 1509 1509 1510 1509 1512 1510 1510 1511 1512 1514 1513 1511 1514 1514 1515 1504 1507 1507 1506 1503 1504 1503 1500 1496 1493 1478
1516 1512 1508 1505 1500 1498 1499 1498 1499 1500 1499 1503 1505 1508 1508 1509 1508 1509 1508 1508 1509 1511 1509 1509 1510 1510 1511 1513 1513 1512 1514 1512 1508 1505 1507 1506 1503 1503 1504 1505 1505 1494 1488 1470
1519 1515 1511 1507 1503 1500 1499 1502 1507 1506 1504 1507 1508 1508 1511 1510 1510 1511 1510 1510 1509 1508 1508 1510 1509 1510 1512 1514 1514 1515 1515 1512 1507 1496 1496 1499 1499 1499 1503 1501 1497 1485 1480 1475
1523 1518 1513 1510 1506 1503 1502 1503 1512 1515 1512 1510 1511 1510 1514 1512 1512 1511 1511 1510 1511 1510 1507 1509 1511 1512 1511 1514 1514 1515 1516 1511 1511 1503 1499 1500 1497 1494 1495 1500 1491 1487 1475 1478
1524 1522 1517 1512 1509 1506 1504 1508 1511 1514 1515 1517 1515 1514 1517 1516 1516 1516 1512 1512 1513 1510 1509 1512 1510 1513 1513 1511 1515 1515 1517 1510 1510 1505 1496 1496 1495 1490 1488 1487 1487 1487 1483 1478
1524 1523 1522 1517 1511 1510 1507 1509 1511 1513 1515 1515 1514 1519 1520 1518 1517 1516 1516 1517 1515 1513 1515 1515 1514 1513 1513 1513 1513 1512 1513 1511 1509 1496 1497 1494 1485 1472 1476 1476 1477 1475 1475 1467
1524 1523 1522 1521 1518 1514 1513 1511 1511 1510 1514 1513 1512 1515 1515 1516 1517 1516 1515 1514 1514 1515 1513 1511 1510 1511 1513 1514 1513 1514 1510 1511 1513 1501 1494 1486 1469 1475 1473 1471 1469 1470 1469 1469
1524 1522 1522 1521 1521 1519 1516 1514 1513 1512 1511 1514 1515 1515 1514 1514 1514 1514 1513 1513 1514 1513 1512 1509 1504 1504 1505 1506 1509 1510 1511 1509 1504 1500 1491 1468 1466 1472 1472 1471 1460 1460 1462 1464
1523 1523 1521 1521 1520 1519 1518 1517 1516 1515 1515 1511 1511 1514 1515 1513 1512 1512 1511 1511 1510 1511 1512 1510 1505 1497 1505 1499 1504 1510 1511 1512 1507 1506 1495 1471 1458 1467 1470 1471 1460 1456 1458 1459
1523 1521 1521 1520 1519 1517 1517 1517 1516 1516 1516 1512 1512 1512 1512 1513 1515 1513 1511 1510 1510 1510 1508 1505 1505 1502 1510 1499 1497 1502 1504 1505 1500 1495 1490 1467 1459 1465 1469 1465 1452 1453 1455 1457
1521 1520 1519 1519 1519 1517 1516 1514 1515 1517 1516 1514 1513 1512 1512 1511 1512 1511 1513 1513 1510 1510 1506 1505 1503 1504 1503 1505 1497 1493 1489 1491 1490 1493 1489 1475 1461 1468 1463 1453 1452 1454 1455 1456
1521 1518 1517 1517 1517 1517 1516 1515 1513 1512 1514 1512 1511 1510 1510 1509 1509 1509 1508 1509 1509 1508 1507 1509 1507 1502 1506 1500 1487 1496 1491 1480 1474 1475 1456 1455 1456 1454 1453 1452 1453 1452 1453 1453
1521 1518 1516 1515 1516 1516 1515 1514 1513 1512 1509 1505 1504 1503 1504 1504 1505 1507 1509 1505 1504 1505 1505 1507 1506 1502 1501 1492 1491 1486 1481 1480 1476 1470 1449 1452 1452 1452 1451 1451 1450 1450 1451 1451
1520 1518 1516 1514 1514 1514 1514 1513 1512 1511 1509 1506 1500 1498 1500 1501 1501 1502 1504 1504 1503 1503 1504 1505 1502 1498 1497 1488 1484 1481 1471 1474 1464 1457 1448 1447 1444 1445 1447 1445 1445 1445 1447 1447
1517 1517 1516 1513 1512 1511 1511 1510 1509 1509 1512 1504 1497 1492 1489 1490 1494 1496 1498 1501 1503 1502 1503 1502 1500 1497 1496 1489 1487 1464 1458 1453 1453 1440 1440 1441 1441 1441 1442 1443 1442 1440 1440 1442
1513 1512 1514 1513 1512 1510 1510 1507 1505 1505 1506 1505 1497 1488 1483 1484 1485 1489 1494 1496 1499 1502 1501 1498 1493 1491 1492 1483 1466 1441 1439 1438 1439 1437 1437 1439 1440 1440 1440 1439 1439 1439 1438 1440
1510 1510 1510 1509 1510 1510 1510 1509 1507 1506 1506 1505 1496 1483 1481 1480 1483 1486 1490 1492 1494 1496 1496 1492 1490 1488 1488 1477 1452 1431 1433 1433 1434 1434 1435 1435 1435 1435 1436 1435 1434 1434 1434 1436
1507 1506 1506 1507 1505 1506 1506 1504 1506 1506 1507 1505 1496 1483 1481 1480 1479 1483 1486 1490 1492 1492 1490 1486 1483 1481 1476 1459 1425 1426 1429 1429 1429 1429 1429 1429 1430 1430 1430 1430 1431 1431 1431 1432
1502 1503 1504 1503 1502 1500 1499 1501 1500 1501 1506 1498 1491 1482 1476 1479 1479 1479 1482 1484 1487 1487 1483 1480 1478 1463 1451 1420 1418 1421 1422 1423 1422 1423 1424 1425 1424 1423 1423 1423 1423 1424 1426 1427
1499 1501 1502 1500 1499 1496 1498 1496 1498 1496 1495 1491 1483 1476 1476 1478 1479 1479 1480 1479 1478 1479 1473 1474 1468 1439 1419 1410 1406 1408 1408 1411 1413 1415 1415 1415 1414 1414 1414 1414 1415 1417 1418 1421
1496 1496 1497 1498 1498 1497 1494 1492 1493 1491 1488 1480 1471 1470 1470 1474 1474 1473 1475 1473 1474 1472 1468 1469 1452 1429 1407 1402 1402 1403 1399 1399 1403 1405 1405 1405 1406 1406 1407 1408 1409 1412 1413 1414
1490 1491 1493 1496 1497 1494 1491 1487 1486 1482 1472 1465 1467 1466 1469 1469 1471 1469 1472 1470 1473 1467 1468 1468 1448 1412 1404 1404 1403 1403 1402 1402 1401 1400 1399 1398 1399 1402 1404 1405 1407 1409 1410 1412
1484 1489 1490 1490 1492 1493 1481 1476 1473 1469 1458 1457 1461 1465 1466 1469 1469 1470 1467 1467 1465 1465 1464 1445 1417 1400 1400 1403 1405 1404 1403 1402 1402 1401 1398 1395 1396 1400 1403 1404 1404 1406 1408 1409
1478 1482 1483 1480 1476 1469 1459 1451 1450 1450 1452 1453 1457 1459 1463 1464 1467 1466 1465 1459 1460 1458 1454 1424 1401 1395 1398 1400 1403 1405 1403 1402 1400 1400 1400 1399 1399 1400 1400 1402 1403 1404 1404 1405
1467 1469 1467 1461 1452 1448 1448 1447 1448 1451 1449 1453 1458 1456 1459 1462 1461 1463 1463 1463 1453 1442 1418 1403 1394 1392 1395 1399 1400 1401 1403 1403 1400 1398 1400 1400 1399 1398 1398 1398 1398 1398 1399 1400
1455 1456 1454 1448 1447 1443 1443 1443 1447 1448 1448 1455 1457 1455 1454 1453 1452 1455 1449 1445 1432 1410 1405 1396 1394 1394 1395 1395 1398 1400 1400 1401 1402 1399 1399 1400 1399 1397 1396 1395 1394 1393 1393 1395
1442 1437 1434 1436 1436 1432 1434 1434 1438 1441 1450 1452 1453 1452 1441 1447 1443 1439 1429 1423 1404 1396 1395 1395 1395 1394 1395 1395 1394 1397 1398 1399 1399 1399 1397 1398 1398 1397 1395 1392 1391 1391 1391 1392
Wind_Speed
15 16 17 17 18 20 24 20 4 15 12 6 4 4 3 2 2 0 2 3 3 3 3 3 2 2 1 6 5 2 2 2 3 3 2 2 4 3 2 3 2 3 3 2
14 15 16 17 17 11 8 10 12 25 11 4 4 3 4 4 2 3 2 2 1 1 2 2 1 1 1 6 4 2 4 1 2 2 2 3 5 5 2 3 2 5 3 2
16 16 15 16 16 12 12 5 3 10 17 7 3 3 5 3 4 4 3 3 1 2 3 3 3 2 2 6 3 2 3 2 6 3 3 2 4 6 5 6 3 1 8 4
18 17 14 13 14 10 8 5 3 3 4 8 8 4 4 4 5 6 7 4 6 3 2 2 2 1 0 1 1 2 2 4 4 11 13 10 10 11 8 8 8 6 3 6
13 18 16 12 10 11 11 3 4 5 3 3 3 5 5 5 3 5 4 3 2 3 2 1 1 1 1 0 2 3 1 3 3 5 1 9 12 13 13 13 11 12 13 12
10 13 17 15 14 10 7 7 6 1 2 2 1 2 2 3 1 1 1 2 3 2 3 4 7 7 4 2 2 3 2 2 3 4 4 8 11 14 18 9 8 9 8 4
8 10 12 15 14 13 10 7 4 2 2 1 2 5 4 2 1 3 2 1 1 1 11 10 3 4 6 6 7 6 2 1 1 4 6 3 2 1 2 13 8 14 8 6
8 7 9 11 12 12 10 9 6 2 2 1 3 4 2 2 2 3 3 2 3 10 6 3 4 2 2 3 4 9 7 2 3 3 3 10 3 4 6 7 6 13 17 12
9 7 8 10 10 11 9 7 8 5 3 3 2 2 2 2 2 2 3 4 5 3 2 1 2 2 2 1 2 3 4 3 4 1 4 4 2 3 4 3 6 6 11 12
11 8 6 8 11 10 6 5 6 4 3 3 4 3 2 3 1 3 3 1 1 2 2 2 2 2 1 3 3 4 3 4 9 8 6 8 4 9 7 3 2 5 11 11
9 8 8 7 8 9 6 4 4 4 4 11 9 8 5 4 4 2 1 2 1 1 3 3 2 3 1 3 3 4 6 5 5 4 6 7 10 7 6 2 2 4 9 12
11 8 8 7 7 7 7 4 5 6 7 8 16 18 16 16 13 4 5 2 1 2 0 1 1 3 3 3 4 2 4 5 2 7 5 2 18 6 13 2 2 6 10 11
12 11 10 9 8 7 6 6 5 6 6 10 10 8 13 19 19 15 5 5 6 4 5 2 1 6 2 4 6 3 6 7 5 3 4 12 21 25 26 22 19 15 11 9
13 13 11 11 10 10 10 8 8 6 4 3 4 4 8 9 12 17 18 15 7 5 5 4 3 3 7 3 4 6 7 9 7 10 19 22 22 18 17 15 19 21 21 15
13 13 13 13 11 11 13 13 13 11 6 4 7 19 19 17 17 14 15 14 12 6 3 4 4 3 3 4 3 9 14 10 8 7 8 12 7 6 5 10 12 13 18 22
14 12 14 14 12 10 8 6 4 6 7 4 3 6 8 6 8 12 12 12 10 6 3 4 4 5 3 4 5 9 18 19 25 13 11 13 12 13 16 19 22 15 12 15
14 13 12 13 12 10 7 4 1 3 1 4 7 4 4 7 8 8 9 11 8 8 4 6 4 5 7 4 7 4 11 18 22 23 22 16 19 12 13 11 11 10 9 12
14 12 13 14 12 14 16 19 16 12 7 6 3 3 3 10 6 5 8 5 8 7 4 3 5 4 7 7 18 17 16 13 18 22 21 21 20 21 17 14 11 10 11 12
15 13 12 12 12 7 9 14 14 13 13 5 5 2 2 10 3 5 7 6 3 4 4 5 6 5 8 13 17 16 16 11 6 6 9 10 15 17 17 15 15 15 14 14
15 12 4 5 5 8 5 3 4 7 10 9 6 6 2 8 5 3 5 4 2 3 3 3 5 7 24 31 32 27 25 21 14 15 19 18 16 15 14 15 15 16 14 14
17 8 6 6 4 4 4 3 4 5 4 8 8 16 5 9 3 3 6 3 2 2 1 3 3 5 7 15 14 13 11 23 30 26 25 22 19 14 10 12 14 16 16 17
18 6 8 5 5 6 3 3 2 5 5 5 4 6 8 7 6 3 5 3 3 5 3 2 4 5 14 11 8 8 6 7 11 13 14 15 17 15 11 9 13 15 15 16
18 8 7 6 5 4 7 9 4 4 6 9 7 3 8 5 6 1 3 5 5 5 3 5 6 7 5 5 7 9 8 6 6 6 5 5 9 14 10 9 10 12 15 17
10 8 6 6 6 6 7 6 2 5 6 15 15 6 4 4 3 2 4 2 2 3 4 7 3 10 11 9 7 6 4 4 2 1 1 2 7 9 8 9 11 13 15 17
8 8 6 10 14 9 6 14 6 4 8 21 7 4 4 2 2 3 1 2 5 5 5 3 7 5 9 7 5 4 4 3 1 2 1 2 5 8 10 12 14 15 16 19
13 9 7 6 3 6 13 12 11 11 18 14 3 2 2 6 3 4 9 4 7 4 3 10 6 9 10 8 6 5 5 4 3 2 2 4 7 9 10 13 16 17 18 20
7 10 25 19 8 13 14 21 19 19 21 3 3 4 8 2 3 5 6 6 4 6 6 8 9 12 12 10 8 8 9 7 5 4 3 5 9 12 15 19 19 19 19 19
Wind_Direction
17 21 22 26 48 49 45 50 50 37 73 56 20 57 83 128 79 198 124 97 103 149 167 119 125 131 216 175 169 107 34 75 252 227 142 261 248 220 247 259 169 258 293 305
10 19 23 26 24 51 64 53 59 49 63 67 44 51 67 54 67 44 95 101 57 169 123 123 98 137 47 166 175 160 165 190 295 187 196 180 224 185 209 212 248 236 279 59
355 13 21 29 32 47 83 60 34 29 49 76 58 63 29 70 39 65 43 52 110 129 71 42 115 131 145 192 207 189 178 250 256 281 333 352 243 207 195 206 220 214 244 284
345 1 20 16 27 50 75 78 95 40 2 26 43 51 11 26 21 16 25 76 38 24 78 69 56 4 30 137 101 142 249 268 233 261 264 247 257 259 226 206 239 244 10 245
349 345 4 22 22 51 67 93 134 116 109 329 4 21 25 28 3 353 16 61 14 47 94 64 92 317 220 243 149 208 192 284 311 281 298 231 251 247 249 246 249 252 261 268
355 349 347 4 35 43 68 73 92 77 2 107 118 39 22 29 293 106 47 331 310 330 15 299 286 251 232 184 223 198 216 278 321 278 345 311 269 249 222 216 220 227 221 253
345 347 347 344 358 27 38 37 46 47 83 320 124 169 178 179 348 308 297 246 246 322 317 307 279 252 257 245 235 232 209 229 235 285 304 251 42 106 234 217 241 220 244 226
329 339 343 341 335 340 3 8 11 11 131 159 215 214 241 261 232 213 233 237 268 324 334 306 295 205 209 195 220 214 221 223 252 271 268 292 218 198 190 196 265 228 228 228
340 317 339 341 334 327 320 339 354 357 322 211 157 171 237 266 234 242 239 255 268 323 30 309 299 303 343 235 195 84 161 253 258 221 276 267 70 154 159 163 262 189 208 214
330 321 321 342 345 336 314 303 326 339 313 297 201 200 188 175 306 287 298 269 198 175 178 223 239 268 293 261 246 179 188 206 229 230 255 274 181 152 146 217 84 175 198 200
328 318 313 324 343 353 342 273 293 322 290 292 269 250 226 210 202 246 28 289 189 183 209 215 188 231 184 262 252 209 206 192 209 187 226 269 143 118 207 29 139 185 202 207
325 305 303 298 315 342 350 303 274 280 273 271 285 280 270 252 246 217 206 217 219 228 214 243 236 232 198 230 273 186 250 230 264 220 235 62 192 244 217 243 216 224 223 228
314 310 290 289 287 301 320 329 316 309 289 287 282 288 268 252 246 239 238 230 213 203 195 176 331 260 167 232 230 249 225 200 235 279 221 241 241 248 259 264 263 259 252 240
303 310 294 282 281 280 290 297 303 306 279 275 270 302 296 286 263 242 234 244 226 214 198 219 231 245 192 239 294 243 239 161 217 256 274 271 268 251 268 272 270 266 246 240
296 303 303 287 282 280 274 281 281 268 249 275 274 284 278 265 251 241 231 237 241 220 200 206 230 241 232 230 274 243 210 223 208 238 243 251 269 280 290 300 312 312 244 243
296 283 300 293 284 285 295 291 276 234 220 275 285 260 252 245 217 217 220 220 222 223 236 236 239 232 230 265 254 243 217 226 229 244 266 249 265 282 290 291 298 296 266 237
293 289 289 289 281 269 230 269 200 128 346 282 294 252 214 190 187 191 206 212 208 210 224 229 236 213 203 247 250 232 246 245 249 253 255 270 277 286 294 286 283 280 242 221
272 279 285 284 275 268 260 251 245 257 288 258 263 270 234 190 163 161 177 185 198 222 247 234 217 199 215 248 245 256 261 272 269 260 254 259 276 283 277 271 274 260 235 219
256 262 284 281 266 254 254 262 248 235 220 257 224 234 253 174 157 147 157 170 219 214 239 233 192 215 225 230 248 246 262 245 253 261 222 252 283 283 272 263 249 238 231 224
241 245 255 249 230 237 263 257 233 208 211 232 242 225 215 167 174 169 143 162 204 237 219 166 234 257 255 248 244 253 251 241 235 231 250 257 271 274 257 255 237 228 226 227
221 208 210 247 236 219 227 228 207 190 247 228 236 208 162 194 168 177 214 170 148 236 176 229 261 266 251 250 240 240 245 231 236 251 263 262 259 240 234 228 219 222 225 226
225 188 178 179 217 224 213 221 236 207 236 203 205 205 200 176 192 184 190 191 149 234 141 234 258 252 267 250 234 224 243 234 237 246 252 252 241 228 228 227 228 232 233 226
196 186 178 184 205 238 210 199 221 232 202 184 165 164 168 172 198 166 177 176 223 131 203 233 239 267 256 232 246 260 260 230 235 261 270 232 206 202 221 244 244 236 232 227
180 179 193 206 201 233 205 200 195 208 197 168 159 136 183 170 178 173 221 202 153 229 236 237 243 257 246 244 246 261 231 216 204 336 2 167 184 207 231 250 256 250 241 235
185 177 219 222 227 241 247 225 223 217 174 159 141 119 158 172 196 210 77 228 248 234 240 238 279 215 183 198 211 219 229 234 184 91 351 294 269 262 261 260 258 252 239 233
204 200 239 238 230 237 222 222 220 201 168 168 222 138 166 226 193 171 214 193 226 240 224 264 276 199 190 185 206 220 201 194 197 133 28 332 313 302 285 268 263 255 244 238
216 221 220 226 249 230 238 225 211 184 161 209 168 207 218 105 213 228 194 211 220 239 288 315 281 230 214 212 212 221 215 213 230 256 302 300 291 297 294 291 284 269 255 246